Flag for Germany Weather past 2 weeks in Korschenbroich, North Rhine-Westphalia, Germany

Now
55 °F

Passing clouds.


Feels Like: 54 °F
Forecast: 47 / 59 °F
Wind: 6 mph from Southwest

Location: Monchengladbach Airport

Current Time: Oct 23, 2014 at 6:10:52 PM

Latest Report: Oct 23, 2014 at 5:20 PM


Visibility: N/A

Pressure: 30.18 "Hg

Humidity: 77%

Dew point: 48 °F

Location of KorschenbroichLocation

Historic Weather in Korschenbroich — Graph

°F

Korschenbroich temperature yesterday

Maximum temperature yesterday: 54 °F (at 2:50 PM)
Minimum temperature yesterday: 45 °F (at 8:20 AM)
Average temperature yesterday: 50 °F

Past Weeks' High & Low Weather Summary

 TemperatureHumidityPressure
High75 °F (Oct 19, 1:20 PM)100% (Oct 11, 7:50 AM)30.24 "Hg (Oct 11, 7:50 AM)
Low45 °F (Oct 11, 7:50 AM)56% (Oct 10, 2:20 PM)29.50 "Hg (Oct 21, 3:20 PM)
Average59 °F80%29.87 "Hg
* Reported Oct 8 4:20 PM — Oct 23 4:50 PM, Korschenbroich, Weather by CustomWeather, © 2014

Note: Actual official high and low records may vary slightly from our data, if they occured in-between our weather recording intervals... More about our weather records

Advertising

Korschenbroich weather history for previous 24 hours

 ConditionsComfort  
Time TempWeatherWind HumidityBarometerVisibility
4:50 PM
Oct 23
57 °FPassing clouds.6 mph72%30.21 "HgN/A
4:20 PM57 °FPassing clouds.6 mph77%30.21 "HgN/A
3:50 PM57 °FPassing clouds.9 mph77%30.21 "HgN/A
3:20 PM57 °FPassing clouds.7 mph77%30.21 "HgN/A
2:50 PM57 °FPassing clouds.7 mph77%30.21 "HgN/A
2:20 PM55 °FPassing clouds.7 mph82%30.21 "HgN/A
1:50 PM55 °FPassing clouds.8 mph77%30.21 "HgN/A
1:20 PM54 °FOvercast.6 mph82%30.21 "HgN/A
12:50 PM54 °FPassing clouds.6 mph82%30.21 "HgN/A
12:20 PM54 °FPassing clouds.6 mph82%30.24 "HgN/A
11:50 AM54 °FPassing clouds.5 mph82%30.24 "HgN/A
11:20 AM54 °FPassing clouds.6 mph77%30.21 "HgN/A
10:50 AM52 °FPassing clouds.6 mph82%30.21 "HgN/A
10:20 AM52 °FPassing clouds.5 mph82%30.21 "HgN/A
9:50 AM52 °FPassing clouds.5 mph82%30.21 "HgN/A
9:20 AM50 °FPartly sunny.3 mph88%30.21 "HgN/A
8:50 AM50 °FSunny.3 mph88%30.21 "Hg10 mi
8:20 AM48 °FPartly sunny.2 mph94%30.21 "HgN/A
7:50 AM48 °FPartly sunny.3 mph94%30.18 "HgN/A
8:20 PM
Oct 22
50 °FPassing clouds.7 mph82%30.15 "HgN/A
7:50 PM50 °FPassing clouds.9 mph82%30.12 "HgN/A
7:20 PM50 °FPassing clouds.13 mph82%30.12 "HgN/A
6:50 PM52 °FClear.13 mph77%30.12 "Hg10 mi
6:20 PM52 °FClear.13 mph77%30.12 "Hg10 mi
Weather by CustomWeather, © 2014

See weather overviewHow to use our weather pages